Weather History for Northeast Philadelphia, PA

Change the Weather History Date:

Tuesday, May 15, 2012

  Actual Average Record
Temperature  
Mean Temperature 68 °F -  
Max Temperature 73 °F 69 °F 87 °F (2004)
Min Temperature 62 °F 49 °F 42 °F (1999)
Cooling Degree Days 2    
Growing Degree Days 18 (Base 50)    
Moisture  
Dew Point 63 °F    
Average Humidity 85    
Maximum Humidity 100    
Minimum Humidity 71    
Precipitation  
Precipitation 0.71 in - - ()
Sea Level Pressure  
Sea Level Pressure 29.99 in    
Wind  
Wind Speed 5 mph (SE)    
Max Wind Speed 10 mph    
Max Gust Speed -    
Visibility 8 miles    
Events Rain    
Averages and records for this station are not official NWS values.
T = Trace of Precipitation, MM = Missing Value Source: NWS Daily Summary

Daily Weather History Graph

Daily Weather History Graph

Search for Another Location

Airport:

Trip Planner

Search our weather history database for the weather conditions in past years. The results will help you decide how hot, cold, wet, or windy it might be!

Date:

Astronomy

May. 15, 2012 Rise Set
Actual Time 5:44 AM EDT 8:09 PM EDT
Civil Twilight 5:13 AM EDT 8:40 PM EDT
Nautical Twilight 4:35 AM EDT 9:18 PM EDT
Astronomical Twilight 3:53 AM EDT 10:00 PM EDT
Moon 2:45 AM EDT (5/15) 3:25 PM EDT (5/15)
Length of Visible Light 15h 26m
Length of Day
14h 25m
Waning Crescent, 24% of the Moon is Illuminated
May 15
Waning Crescent
May 20
New
May 28
First Quarter
Jun 4
Full
Jun 11
Last Quarter

Hourly Weather History & Observations

Time (EDT) Temp. Dew Point Humidity Pressure Visibility Wind Dir Wind Speed Gust Speed Precip Events Conditions
12:54 AM 63.0 °F 61.0 °F 93% 30.11 in 10.0 mi Calm Calm - 0.00 in Rain Light Rain
1:54 AM 62.1 °F 59.0 °F 90% 30.08 in 10.0 mi SE 5.8 mph - 0.01 in Rain Light Rain
2:54 AM 62.1 °F 59.0 °F 90% 30.06 in 10.0 mi SE 3.5 mph - 0.00 in Rain Light Rain
3:54 AM 62.1 °F 59.0 °F 90% 30.04 in 10.0 mi SE 3.5 mph - 0.00 in Rain Light Rain
4:54 AM 63.0 °F 59.0 °F 87% 30.04 in 10.0 mi SE 5.8 mph - 0.00 in   Overcast
5:54 AM 64.0 °F 59.0 °F 84% 30.04 in 10.0 mi SE 5.8 mph - 0.00 in   Overcast
6:29 AM 64.4 °F 59.0 °F 83% 30.04 in 10.0 mi SE 5.8 mph - N/A   Overcast
6:54 AM 63.0 °F 60.1 °F 90% 30.04 in 4.0 mi SE 9.2 mph - 0.01 in Rain Light Rain
7:54 AM 64.4 °F 60.8 °F 88% 30.02 in 10.0 mi SE 10.4 mph - N/A   Overcast
8:01 AM 64.4 °F 60.8 °F 88% 30.02 in 10.0 mi SE 8.1 mph - N/A   Overcast
8:54 AM 64.9 °F 61.0 °F 87% 30.03 in 5.0 mi SSE 6.9 mph - 0.03 in Rain Rain
9:43 AM 64.4 °F 62.6 °F 94% 30.03 in 2.5 mi SE 8.1 mph - 0.16 in Rain Rain
9:47 AM 64.4 °F 62.6 °F 94% 30.03 in 3.0 mi SE 9.2 mph - 0.17 in Rain Rain
9:54 AM 64.0 °F 62.1 °F 93% 30.03 in 3.0 mi SE 10.4 mph - 0.20 in Rain Heavy Rain
10:01 AM 64.4 °F 62.6 °F 94% 30.02 in 2.0 mi SE 6.9 mph - 0.02 in Rain Rain
10:54 AM 64.0 °F 63.0 °F 96% 30.02 in 4.0 mi SE 9.2 mph - 0.27 in Rain Rain
11:54 AM 66.0 °F 64.9 °F 96% 30.01 in 10.0 mi SE 8.1 mph - 0.04 in Rain Light Rain
12:09 PM 64.4 °F 64.4 °F 100% 30.01 in 1.8 mi SSE 5.8 mph - 0.03 in Rain Heavy Rain
12:26 PM 64.4 °F 64.4 °F 100% 30.00 in 3.0 mi SE 8.1 mph - 0.11 in Rain Light Rain
12:33 PM 66.2 °F 64.4 °F 94% 30.00 in 10.0 mi SE 6.9 mph - 0.12 in Rain Light Rain
12:40 PM 66.2 °F 64.4 °F 94% 30.00 in 10.0 mi SE 6.9 mph - 0.12 in   Overcast
12:54 PM 66.0 °F 66.0 °F 100% 30.00 in 10.0 mi SE 6.9 mph - 0.12 in   Overcast
1:49 PM 69.8 °F 64.4 °F 83% 29.98 in 10.0 mi SSE 4.6 mph - N/A   Overcast
1:54 PM 69.1 °F 64.0 °F 84% 29.97 in 10.0 mi South 4.6 mph - N/A   Overcast
2:36 PM 71.6 °F 62.6 °F 73% 29.96 in 10.0 mi SSE 8.1 mph - N/A   Scattered Clouds
2:54 PM 73.0 °F 64.0 °F 73% 29.96 in 10.0 mi SE 8.1 mph - N/A   Mostly Cloudy
3:03 PM 71.6 °F 62.6 °F 73% 29.96 in 10.0 mi SSE 8.1 mph - N/A   Mostly Cloudy
3:54 PM 71.1 °F 63.0 °F 75% 29.95 in 10.0 mi SSE 5.8 mph - 0.00 in Rain Light Rain
4:01 PM 71.6 °F 62.6 °F 73% 29.94 in 10.0 mi SE 5.8 mph - 0.00 in   Overcast
4:54 PM 73.9 °F 64.0 °F 71% 29.93 in 10.0 mi ESE 6.9 mph - 0.00 in   Clear
5:39 PM 73.4 °F 64.4 °F 73% 29.93 in 10.0 mi SE 3.5 mph - N/A   Mostly Cloudy
5:54 PM 73.0 °F 64.0 °F 73% 29.93 in 10.0 mi ESE 5.8 mph - N/A   Mostly Cloudy
6:09 PM 73.4 °F 64.4 °F 73% 29.93 in 10.0 mi SE 6.9 mph - N/A   Mostly Cloudy
6:19 PM 73.4 °F 64.4 °F 73% 29.93 in 10.0 mi SE 5.8 mph - N/A   Overcast
6:26 PM 73.4 °F 64.4 °F 73% 29.93 in 10.0 mi SSE 4.6 mph - N/A   Mostly Cloudy
6:36 PM 73.4 °F 64.4 °F 73% 29.93 in 10.0 mi SSE 5.8 mph - 0.00 in Rain Light Rain
6:45 PM 71.6 °F 64.4 °F 78% 29.93 in 10.0 mi Calm Calm - 0.00 in   Overcast
6:54 PM 72.0 °F 66.0 °F 81% 29.93 in 2.5 mi Calm Calm - 0.03 in Rain Rain
7:04 PM 71.6 °F 66.2 °F 83% 29.93 in 10.0 mi Calm Calm - 0.00 in Rain Light Rain
7:54 PM 71.1 °F 66.9 °F 87% 29.94 in 9.0 mi ENE 3.5 mph - 0.00 in   Mostly Cloudy
8:54 PM 70.0 °F 66.0 °F 87% 29.94 in 10.0 mi SSE 3.5 mph - N/A   Mostly Cloudy
9:13 PM 69.8 °F 66.2 °F 88% 29.95 in 10.0 mi Calm Calm - N/A   Mostly Cloudy
9:54 PM 69.1 °F 64.9 °F 87% 29.96 in 10.0 mi Calm Calm - N/A   Scattered Clouds
10:54 PM 69.1 °F 64.9 °F 87% 29.95 in 10.0 mi Calm Calm - N/A   Clear
11:54 PM 68.0 °F 64.9 °F 90% 29.95 in 9.0 mi Calm Calm - N/A   Overcast